sat.trackr.live / text

‹ back to catalog

STARLINK-36421

NORAD 67464 · 2026-008V

PAYLOAD ACTIVE UNKNOWN

§ Identity

Operator
Country
US
Launch date
2026-01-14
Launch site
AFETR
Launch vehicle
Mass (kg)
RCS (m²)

Purposes: comms

External: N2YO · Heavens-Above · Gunter

§ Orbital elements

Epoch: 2026-05-24T23:30:43.259040Z

Period
94.27 min
Inclination
42.9988°
Eccentricity
0.0000258
Mean motion
15.27586704 rev/d
Perigee alt
482.9 km
Apogee alt
483.2 km
Semi-major
6,861.2 km
B*
5.1487e-4
RAAN
134.0454°
Arg perigee
245.5981°
Mean anomaly
114.4844°
Rev number
2,124

§ Raw data

STARLINK-364211 67464U 26008V   26144.97966735  .00013936  00000+0  51487-3 0  99912 67464  42.9988 134.0454 0000258 245.5981 114.4844 15.27586704 21249

JSON: /api/v1/satellites/67464 · /tle

For live sub-satellite position, see the globe view (requires WebGL).

§ Visibility from observer

Set your observer location to see the next 7 days of passes ≥ 10°. The values pass through the URL so the page stays shareable.

No JS? Fill the form by hand. The geolocation button needs JavaScript.